H-2A DEB

基本信息
目录编号:
47187
目录名称:
H-2A DEB
国际标识:
2018-084CU
轨道中心:
EARTH
物体状态:
已陨落(2024-07-04)
发射日期:
2018-10-29 UTC
轨道信息
数据来源: 国际轨道数据
星历时间: 2024-07-04T01:55:47+0800
半长轴: 6607.608km
偏心率: 0.0017509
轨道倾角: 97.966°
近地点辐角: 277.327°
升交点赤经: 354.830°
平近点角: 82.602°
近地点: 217.903km
远地点: 241.043km
周期: 89.089分钟
每日圈数: 16.163536
详细信息
发射场:
TNSTA
轨道高度:
LEO
数据来源:
AOE Integration Group
参考系:
TEME
时间系统:
UTC
历元类型:
SGP4
2D轨道图
3D轨道图
轨道高度分析图
轨道倾角分析图
轨道综合分析图
查看轨道综合分析图